UAE708 FMMI-FSIA

Flight info

Callsign UAE708
Flight time 2h 17m
Altitude 39000
Route SEMEM1E GATLA UL441 MIROV/N0483F400 UL441 NORSI/N0484F390 DCT IMPOX IMPOX1R
Aircraft A359/H-SDE2E3GHIJ3J4J5LM1ORWXY/LB1D1

Departure

Time 2026-04-26 07:29
Airport Ivato International Airport (FMMI)

Arrival

Time 2026-04-26 09:47
Airport Seychelles International Airport (FSIA)
Time Latitude Longitude Altitude Speed Heading
2026-04-26 06:47 -18.79996 47.48000 4172 ft 0 kts 188°
2026-04-26 07:21 -18.79989 47.48001 4172 ft 3 kts 188°
2026-04-26 07:21 -18.79970 47.48004 4172 ft 3 kts 188°
2026-04-26 07:21 -18.79958 47.48005 4172 ft 3 kts 199°
2026-04-26 07:21 -18.79941 47.48015 4172 ft 3 kts 214°
2026-04-26 07:22 -18.79931 47.48022 4172 ft 2 kts 220°
2026-04-26 07:22 -18.79922 47.48032 4172 ft 0 kts 240°
2026-04-26 07:22 -18.79914 47.48047 4172 ft 3 kts 242°
2026-04-26 07:22 -18.79906 47.48064 4172 ft 3 kts 260°
2026-04-26 07:23 -18.79905 47.48079 4172 ft 0 kts 275°
2026-04-26 07:25 -18.79904 47.48072 4172 ft 4 kts 275°
2026-04-26 07:25 -18.79897 47.48014 4172 ft 12 kts 278°
2026-04-26 07:26 -18.79882 47.47909 4172 ft 15 kts 279°
2026-04-26 07:26 -18.79852 47.47804 4172 ft 15 kts 285°
2026-04-26 07:26 -18.79828 47.47693 4172 ft 16 kts 279°
2026-04-26 07:26 -18.79810 47.47577 4172 ft 16 kts 279°
2026-04-26 07:27 -18.79792 47.47457 4172 ft 17 kts 279°
2026-04-26 07:27 -18.79776 47.47332 4171 ft 17 kts 279°
2026-04-26 07:27 -18.79758 47.47205 4171 ft 17 kts 279°
2026-04-26 07:27 -18.79738 47.47131 4171 ft 5 kts 318°
2026-04-26 07:28 -18.79705 47.47125 4170 ft 6 kts
2026-04-26 07:28 -18.79655 47.47135 4169 ft 10 kts 10°
2026-04-26 07:28 -18.79588 47.47152 4167 ft 4 kts 40°
2026-04-26 07:28 -18.79587 47.47168 4167 ft 4 kts 86°
2026-04-26 07:29 -18.79595 47.47239 4167 ft 23 kts 98°
2026-04-26 07:29 -18.79663 47.47686 4170 ft 100 kts 99°
2026-04-26 07:29 -18.79808 47.48656 4228 ft 158 kts 100°
2026-04-26 07:29 -18.79876 47.49738 5072 ft 155 kts 94°
2026-04-26 07:30 -18.79990 47.50894 5761 ft 162 kts 102°
2026-04-26 07:30 -18.80211 47.52046 6534 ft 162 kts 103°
2026-04-26 07:30 -18.80402 47.53280 6789 ft 181 kts 94°
2026-04-26 07:30 -18.80063 47.54634 6962 ft 208 kts 57°
2026-04-26 07:31 -18.78864 47.55638 7190 ft 235 kts 30°
2026-04-26 07:31 -18.77308 47.56442 7403 ft 261 kts 27°
2026-04-26 07:31 -18.75596 47.57282 7770 ft 279 kts 27°
2026-04-26 07:31 -18.73817 47.58173 8382 ft 286 kts 28°
2026-04-26 07:32 -18.72013 47.59094 9103 ft 290 kts 28°
2026-04-26 07:32 -18.70185 47.60034 9843 ft 295 kts 28°
2026-04-26 07:32 -18.68327 47.60996 10465 ft 302 kts 28°
2026-04-26 07:32 -18.66384 47.62009 10784 ft 321 kts 28°
2026-04-26 07:33 -18.64323 47.63084 11045 ft 340 kts 28°
2026-04-26 07:33 -18.62168 47.64208 11276 ft 351 kts 27°
2026-04-26 07:33 -18.59958 47.65358 11553 ft 358 kts 28°
2026-04-26 07:33 -18.57704 47.66529 11922 ft 362 kts 28°
2026-04-26 07:34 -18.55439 47.67706 12319 ft 365 kts 28°
2026-04-26 07:34 -18.53154 47.68895 12687 ft 368 kts 27°
2026-04-26 07:34 -18.50852 47.70091 13088 ft 370 kts 28°
2026-04-26 07:34 -18.48541 47.71293 13471 ft 372 kts 28°
2026-04-26 07:35 -18.46217 47.72501 13857 ft 374 kts 28°
2026-04-26 07:35 -18.43892 47.73744 14172 ft 376 kts 30°
2026-04-26 07:35 -18.41615 47.75117 14493 ft 378 kts 32°
2026-04-26 07:35 -18.39339 47.76520 14823 ft 381 kts 32°
2026-04-26 07:36 -18.37042 47.77925 15140 ft 383 kts 32°
2026-04-26 07:36 -18.34727 47.79330 15435 ft 386 kts 31°
2026-04-26 07:36 -18.32391 47.80740 15760 ft 388 kts 32°
2026-04-26 07:36 -18.30033 47.82161 16032 ft 392 kts 32°
2026-04-26 07:37 -18.27662 47.83585 16385 ft 394 kts 32°
2026-04-26 07:37 -18.25277 47.85018 16695 ft 396 kts 31°
2026-04-26 07:37 -18.22876 47.86459 17003 ft 399 kts 32°
2026-04-26 07:37 -18.20455 47.87910 17309 ft 401 kts 31°
2026-04-26 07:38 -18.18025 47.89368 17602 ft 404 kts 31°
2026-04-26 07:38 -18.15581 47.90835 17937 ft 406 kts 31°
2026-04-26 07:38 -18.13117 47.92311 18211 ft 409 kts 31°
2026-04-26 07:38 -18.10641 47.93793 18543 ft 410 kts 31°
2026-04-26 07:39 -18.08150 47.95285 18797 ft 413 kts 31°
2026-04-26 07:39 -18.05691 47.96757 19122 ft 413 kts 31°
2026-04-26 07:39 -18.03188 47.98255 19368 ft 415 kts 31°
2026-04-26 07:39 -18.00675 47.99758 19647 ft 417 kts 31°
2026-04-26 07:40 -17.98146 48.01270 19887 ft 419 kts 31°
2026-04-26 07:40 -17.95610 48.02786 20211 ft 419 kts 31°
2026-04-26 07:40 -17.93069 48.04304 20484 ft 421 kts 31°
2026-04-26 07:40 -17.90516 48.05828 20710 ft 424 kts 31°
2026-04-26 07:41 -17.87950 48.07360 20983 ft 425 kts 31°
2026-04-26 07:41 -17.85371 48.08899 21251 ft 427 kts 31°
2026-04-26 07:41 -17.82789 48.10440 21553 ft 428 kts 31°
2026-04-26 07:41 -17.80196 48.11987 21770 ft 430 kts 30°
2026-04-26 07:42 -17.77592 48.13540 22024 ft 432 kts 30°
2026-04-26 07:42 -17.74970 48.15102 22267 ft 434 kts 30°
2026-04-26 07:42 -17.72345 48.16667 22526 ft 435 kts 30°
2026-04-26 07:42 -17.69710 48.18237 22784 ft 436 kts 30°
2026-04-26 07:43 -17.67060 48.19815 23004 ft 439 kts 30°
2026-04-26 07:43 -17.64405 48.21395 23246 ft 440 kts 30°
2026-04-26 07:43 -17.61734 48.22985 23409 ft 443 kts 30°
2026-04-26 07:43 -17.59061 48.24575 23728 ft 442 kts 30°
2026-04-26 07:44 -17.56376 48.26172 23913 ft 444 kts 30°
2026-04-26 07:44 -17.53689 48.27769 24102 ft 445 kts 30°
2026-04-26 07:44 -17.50993 48.29371 24301 ft 446 kts 30°
2026-04-26 07:44 -17.48289 48.30977 24479 ft 448 kts 30°
2026-04-26 07:45 -17.45575 48.32590 24686 ft 448 kts 30°
2026-04-26 07:45 -17.42854 48.34205 24846 ft 450 kts 30°
2026-04-26 07:45 -17.40130 48.35821 25060 ft 451 kts 30°
2026-04-26 07:45 -17.37398 48.37442 25264 ft 451 kts 30°
2026-04-26 07:46 -17.34657 48.39067 25425 ft 454 kts 29°
2026-04-26 07:46 -17.31911 48.40695 25649 ft 454 kts 29°
2026-04-26 07:46 -17.29159 48.42327 25801 ft 456 kts 29°
2026-04-26 07:46 -17.26438 48.43939 26029 ft 456 kts 29°
2026-04-26 07:47 -17.23668 48.45579 26240 ft 457 kts 29°
2026-04-26 07:47 -17.20902 48.47217 26442 ft 458 kts 29°
2026-04-26 07:47 -17.18127 48.48859 26632 ft 459 kts 29°
2026-04-26 07:47 -17.15332 48.50512 26707 ft 464 kts 29°
2026-04-26 07:48 -17.12523 48.52174 26959 ft 463 kts 28°
2026-04-26 07:48 -17.09712 48.53835 27162 ft 464 kts 28°
2026-04-26 07:48 -17.06902 48.55497 27374 ft 465 kts 28°
2026-04-26 07:48 -17.04083 48.57162 27597 ft 466 kts 28°
2026-04-26 07:49 -17.01252 48.58833 27775 ft 468 kts 28°
2026-04-26 07:49 -16.98421 48.60506 28012 ft 468 kts 28°
2026-04-26 07:49 -16.95580 48.62182 28216 ft 469 kts 28°
2026-04-26 07:50 -16.89870 48.65548 28618 ft 472 kts 28°
2026-04-26 07:50 -16.87003 48.67240 28776 ft 475 kts 28°
2026-04-26 07:50 -16.84128 48.68935 29020 ft 475 kts 27°
2026-04-26 07:50 -16.81246 48.70633 29233 ft 476 kts 28°
2026-04-26 07:51 -16.78354 48.72337 29414 ft 478 kts 27°
2026-04-26 07:51 -16.75458 48.74041 29674 ft 478 kts 27°
2026-04-26 07:51 -16.72552 48.75748 29870 ft 480 kts 27°
2026-04-26 07:51 -16.69639 48.77462 30124 ft 481 kts 27°
2026-04-26 07:52 -16.66725 48.79178 30335 ft 481 kts 27°
2026-04-26 07:52 -16.63805 48.80896 30523 ft 483 kts 27°
2026-04-26 07:52 -16.60878 48.82617 30728 ft 484 kts 27°
2026-04-26 07:52 -16.57939 48.84347 30938 ft 485 kts 27°
2026-04-26 07:53 -16.54996 48.86076 31129 ft 487 kts 27°
2026-04-26 07:53 -16.52043 48.87806 31340 ft 488 kts 27°
2026-04-26 07:53 -16.49084 48.89541 31539 ft 489 kts 27°
2026-04-26 07:53 -16.46112 48.91282 31737 ft 490 kts 27°
2026-04-26 07:54 -16.43137 48.93026 31918 ft 492 kts 26°
2026-04-26 07:54 -16.40153 48.94774 32091 ft 493 kts 26°
2026-04-26 07:54 -16.37159 48.96529 32279 ft 494 kts 26°
2026-04-26 07:54 -16.34156 48.98288 32447 ft 496 kts 26°
2026-04-26 07:55 -16.31146 49.00050 32709 ft 498 kts 26°
2026-04-26 07:55 -16.28125 49.01818 32994 ft 499 kts 26°
2026-04-26 07:55 -16.25091 49.03593 33270 ft 500 kts 26°
2026-04-26 07:55 -16.22094 49.05345 33526 ft 502 kts 26°
2026-04-26 07:56 -16.19046 49.07128 33747 ft 504 kts 25°
2026-04-26 07:56 -16.15986 49.08916 33981 ft 506 kts 25°
2026-04-26 07:56 -16.12912 49.10712 34147 ft 508 kts 25°
2026-04-26 07:56 -16.09827 49.12515 34403 ft 508 kts 25°
2026-04-26 07:57 -16.06753 49.14311 34707 ft 506 kts 25°
2026-04-26 07:57 -16.03689 49.16102 35012 ft 505 kts 25°
2026-04-26 07:57 -16.00626 49.17893 35299 ft 504 kts 25°
2026-04-26 07:57 -15.97581 49.19691 35572 ft 503 kts 26°
2026-04-26 07:58 -15.94543 49.21492 35847 ft 502 kts 26°
2026-04-26 07:58 -15.91510 49.23292 36096 ft 502 kts 26°
2026-04-26 07:58 -15.88474 49.25094 36350 ft 502 kts 26°
2026-04-26 07:58 -15.85446 49.26889 36613 ft 501 kts 25°
2026-04-26 07:59 -15.82420 49.28681 36851 ft 501 kts 25°
2026-04-26 07:59 -15.79397 49.30470 37100 ft 500 kts 25°
2026-04-26 07:59 -15.76371 49.32258 37315 ft 500 kts 25°
2026-04-26 07:59 -15.73351 49.34042 37529 ft 499 kts 25°
2026-04-26 08:00 -15.70335 49.35824 37785 ft 499 kts 25°
2026-04-26 08:00 -15.67324 49.37602 38014 ft 498 kts 25°
2026-04-26 08:00 -15.64312 49.39380 38227 ft 497 kts 25°
2026-04-26 08:00 -15.61309 49.41152 38450 ft 497 kts 25°
2026-04-26 08:01 -15.58309 49.42921 38650 ft 496 kts 25°
2026-04-26 08:01 -15.55314 49.44687 38832 ft 495 kts 25°
2026-04-26 08:01 -15.52317 49.46454 38974 ft 495 kts 25°
2026-04-26 08:01 -15.49319 49.48219 39031 ft 497 kts 25°
2026-04-26 08:02 -15.43313 49.51756 39035 ft 496 kts 25°
2026-04-26 08:02 -15.37304 49.55294 39035 ft 497 kts 25°
2026-04-26 08:03 -15.31289 49.58832 39025 ft 497 kts 25°
2026-04-26 08:03 -15.25284 49.62362 39037 ft 496 kts 25°
2026-04-26 08:04 -15.19269 49.65893 39037 ft 497 kts 25°
2026-04-26 08:04 -15.13298 49.69398 39040 ft 497 kts 25°
2026-04-26 08:05 -15.07291 49.72923 39033 ft 497 kts 25°
2026-04-26 08:05 -15.01280 49.76448 39029 ft 496 kts 25°
2026-04-26 08:06 -14.95254 49.79923 39022 ft 496 kts 24°
2026-04-26 08:06 -14.89183 49.83317 39011 ft 496 kts 23°
2026-04-26 08:07 -14.84095 49.86158 39007 ft 496 kts 24°
2026-04-26 08:07 -14.78080 49.89532 38989 ft 494 kts 24°
2026-04-26 08:08 -14.72043 49.92929 38986 ft 494 kts 24°
2026-04-26 08:08 -14.65998 49.96328 38986 ft 494 kts 24°
2026-04-26 08:09 -14.59950 49.99725 38977 ft 495 kts 24°
2026-04-26 08:09 -14.53901 50.03121 38971 ft 495 kts 24°
2026-04-26 08:10 -14.47850 50.06517 38966 ft 495 kts 24°
2026-04-26 08:10 -14.41806 50.09907 38982 ft 495 kts 24°
2026-04-26 08:11 -14.35756 50.13297 38965 ft 495 kts 24°
2026-04-26 08:11 -14.29714 50.16681 38956 ft 494 kts 24°
2026-04-26 08:12 -14.23686 50.20088 38969 ft 494 kts 25°
2026-04-26 08:12 -14.17692 50.23561 38965 ft 495 kts 25°
2026-04-26 08:13 -14.11692 50.27044 38961 ft 495 kts 25°
2026-04-26 08:13 -14.05690 50.30512 38953 ft 495 kts 25°
2026-04-26 08:14 -13.99680 50.33975 38965 ft 495 kts 25°
2026-04-26 08:14 -13.93673 50.37434 38967 ft 495 kts 25°
2026-04-26 08:15 -13.87664 50.40891 38950 ft 495 kts 25°
2026-04-26 08:15 -13.81653 50.44348 38965 ft 495 kts 25°
2026-04-26 08:16 -13.75643 50.47803 38953 ft 495 kts 25°
2026-04-26 08:16 -13.69631 50.51257 38965 ft 495 kts 25°
2026-04-26 08:17 -13.63622 50.54707 38951 ft 495 kts 25°
2026-04-26 08:17 -13.57616 50.58158 38954 ft 495 kts 25°
2026-04-26 08:18 -13.51605 50.61600 38950 ft 495 kts 25°
2026-04-26 08:18 -13.45588 50.65043 38952 ft 495 kts 25°
2026-04-26 08:19 -13.39571 50.68486 38951 ft 495 kts 25°
2026-04-26 08:19 -13.33552 50.71929 38939 ft 495 kts 25°
2026-04-26 08:20 -13.27536 50.75369 38941 ft 495 kts 25°
2026-04-26 08:20 -13.21525 50.78804 38942 ft 494 kts 25°
2026-04-26 08:21 -13.15556 50.82213 38946 ft 494 kts 25°
2026-04-26 08:21 -13.09506 50.85666 38940 ft 494 kts 25°
2026-04-26 08:22 -13.03542 50.89068 38935 ft 493 kts 25°
2026-04-26 08:22 -12.97544 50.92488 38943 ft 493 kts 25°
2026-04-26 08:23 -12.91541 50.95908 38937 ft 494 kts 25°
2026-04-26 08:23 -12.85541 50.99325 38940 ft 493 kts 25°
2026-04-26 08:24 -12.79544 51.02738 38929 ft 492 kts 26°
2026-04-26 08:24 -12.73566 51.06140 38934 ft 492 kts 26°
2026-04-26 08:25 -12.67583 51.09541 38931 ft 491 kts 26°
2026-04-26 08:25 -12.61608 51.12937 38930 ft 491 kts 26°
2026-04-26 08:26 -12.55626 51.16334 38930 ft 491 kts 26°
2026-04-26 08:26 -12.49652 51.19725 38927 ft 491 kts 26°
2026-04-26 08:27 -12.43682 51.23112 38929 ft 491 kts 26°
2026-04-26 08:27 -12.37702 51.26503 38928 ft 491 kts 26°
2026-04-26 08:28 -12.31730 51.29888 38925 ft 491 kts 26°
2026-04-26 08:28 -12.25762 51.33268 38932 ft 490 kts 26°
2026-04-26 08:29 -12.19796 51.36646 38926 ft 490 kts 26°
2026-04-26 08:29 -12.13829 51.40023 38924 ft 490 kts 26°
2026-04-26 08:30 -12.07865 51.43398 38924 ft 490 kts 26°
2026-04-26 08:30 -12.01895 51.46776 38924 ft 489 kts 26°
2026-04-26 08:31 -11.95939 51.50144 38923 ft 489 kts 26°
2026-04-26 08:31 -11.90029 51.53484 38916 ft 489 kts 26°
2026-04-26 08:32 -11.84075 51.56848 38920 ft 489 kts 26°
2026-04-26 08:32 -11.78125 51.60207 38919 ft 489 kts 26°
2026-04-26 08:33 -11.72173 51.63566 38918 ft 488 kts 26°
2026-04-26 08:33 -11.66232 51.66919 38911 ft 488 kts 26°
2026-04-26 08:34 -11.60293 51.70272 38907 ft 488 kts 26°
2026-04-26 08:34 -11.54360 51.73622 38916 ft 488 kts 26°
2026-04-26 08:35 -11.48421 51.76973 38910 ft 488 kts 26°
2026-04-26 08:35 -11.42478 51.80325 38914 ft 488 kts 26°
2026-04-26 08:36 -11.36537 51.83674 38909 ft 488 kts 26°
2026-04-26 08:36 -11.30597 51.87020 38910 ft 488 kts 26°
2026-04-26 08:37 -11.24656 51.90366 38907 ft 487 kts 26°
2026-04-26 08:37 -11.18727 51.93704 38909 ft 486 kts 26°
2026-04-26 08:38 -11.12841 51.97016 38908 ft 486 kts 26°
2026-04-26 08:38 -11.06920 52.00345 38911 ft 486 kts 26°
2026-04-26 08:39 -11.00996 52.03675 38904 ft 486 kts 26°
2026-04-26 08:39 -10.95083 52.06998 38905 ft 484 kts 26°
2026-04-26 08:40 -10.89188 52.10309 38905 ft 484 kts 26°
2026-04-26 08:40 -10.83299 52.13614 38905 ft 484 kts 26°
2026-04-26 08:41 -10.77403 52.16922 38898 ft 484 kts 26°
2026-04-26 08:41 -10.71511 52.20226 38902 ft 483 kts 26°
2026-04-26 08:42 -10.65627 52.23524 38902 ft 483 kts 26°
2026-04-26 08:42 -10.59740 52.26823 38901 ft 483 kts 26°
2026-04-26 08:43 -10.53853 52.30121 38902 ft 483 kts 26°
2026-04-26 08:43 -10.47964 52.33418 38896 ft 484 kts 26°
2026-04-26 08:44 -10.42070 52.36715 38905 ft 484 kts 26°
2026-04-26 08:44 -10.36165 52.40018 38902 ft 484 kts 26°
2026-04-26 08:45 -10.30297 52.43299 38901 ft 484 kts 26°
2026-04-26 08:45 -10.24393 52.46599 38900 ft 484 kts 26°
2026-04-26 08:46 -10.18491 52.49896 38897 ft 484 kts 26°
2026-04-26 08:46 -10.12584 52.53194 38897 ft 485 kts 26°
2026-04-26 08:47 -10.06668 52.56496 38895 ft 486 kts 26°
2026-04-26 08:47 -10.00746 52.59800 38897 ft 486 kts 26°
2026-04-26 08:48 -9.94824 52.63106 38900 ft 486 kts 26°
2026-04-26 08:48 -9.88905 52.66407 38899 ft 485 kts 26°
2026-04-26 08:49 -9.82993 52.69703 38890 ft 485 kts 26°
2026-04-26 08:49 -9.77083 52.72997 38895 ft 485 kts 26°
2026-04-26 08:50 -9.71177 52.76288 38890 ft 485 kts 26°
2026-04-26 08:50 -9.65265 52.79580 38894 ft 485 kts 26°
2026-04-26 08:51 -9.56405 52.84512 38897 ft 484 kts 26°
2026-04-26 08:52 -9.50502 52.87796 38892 ft 484 kts 26°
2026-04-26 08:52 -9.44601 52.91078 38894 ft 484 kts 26°
2026-04-26 08:53 -9.38701 52.94358 38894 ft 484 kts 26°
2026-04-26 08:53 -9.33796 52.97083 38891 ft 484 kts 26°
2026-04-26 08:54 -9.27897 53.00361 38894 ft 484 kts 26°
2026-04-26 08:54 -9.21999 53.03636 38894 ft 484 kts 26°
2026-04-26 08:55 -9.16090 53.06916 38888 ft 484 kts 26°
2026-04-26 08:55 -9.10187 53.10191 38891 ft 484 kts 26°
2026-04-26 08:56 -9.04280 53.13468 38887 ft 484 kts 27°
2026-04-26 08:56 -8.98381 53.16738 38893 ft 484 kts 26°
2026-04-26 08:57 -8.92481 53.20008 38894 ft 483 kts 26°
2026-04-26 08:57 -8.86580 53.23278 38891 ft 484 kts 26°
2026-04-26 08:58 -8.80684 53.26544 38887 ft 484 kts 27°
2026-04-26 08:58 -8.74766 53.29820 38883 ft 485 kts 27°
2026-04-26 08:59 -8.68890 53.33072 38884 ft 485 kts 26°
2026-04-26 08:59 -8.62972 53.36346 38886 ft 485 kts 27°
2026-04-26 09:00 -8.57053 53.39619 38885 ft 485 kts 26°
2026-04-26 09:00 -8.51136 53.42891 38888 ft 485 kts 26°
2026-04-26 09:01 -8.45222 53.46159 38890 ft 484 kts 26°
2026-04-26 09:01 -8.39315 53.49422 38882 ft 484 kts 26°
2026-04-26 09:02 -8.33401 53.52688 38885 ft 484 kts 26°
2026-04-26 09:02 -8.27488 53.55952 38886 ft 484 kts 26°
2026-04-26 09:03 -8.21578 53.59214 38885 ft 484 kts 26°
2026-04-26 09:03 -8.15669 53.62474 38883 ft 484 kts 26°
2026-04-26 09:04 -8.09760 53.65733 38880 ft 484 kts 26°
2026-04-26 09:04 -8.03852 53.68990 38886 ft 484 kts 26°
2026-04-26 09:05 -7.97941 53.72247 38882 ft 484 kts 26°
2026-04-26 09:05 -7.92030 53.75505 38886 ft 485 kts 26°
2026-04-26 09:06 -7.86109 53.78766 38883 ft 485 kts 26°
2026-04-26 09:06 -7.80179 53.82031 38880 ft 485 kts 26°
2026-04-26 09:07 -7.74248 53.85295 38880 ft 485 kts 26°
2026-04-26 09:07 -7.68323 53.88555 38881 ft 485 kts 26°
2026-04-26 09:08 -7.62435 53.91794 38883 ft 486 kts 26°
2026-04-26 09:08 -7.56496 53.95060 38883 ft 486 kts 26°
2026-04-26 09:09 -7.50559 53.98323 38883 ft 486 kts 26°
2026-04-26 09:09 -7.44619 54.01587 38880 ft 485 kts 26°
2026-04-26 09:10 -7.38693 54.04844 38883 ft 485 kts 26°
2026-04-26 09:10 -7.32773 54.08094 38875 ft 485 kts 26°
2026-04-26 09:11 -7.26864 54.11338 38878 ft 485 kts 26°
2026-04-26 09:11 -7.20914 54.14586 38878 ft 485 kts 26°
2026-04-26 09:12 -7.14978 54.17798 38873 ft 485 kts 26°
2026-04-26 09:12 -7.09034 54.21017 38871 ft 485 kts 26°
2026-04-26 09:13 -7.03082 54.24241 38873 ft 486 kts 26°
2026-04-26 09:13 -6.97136 54.27463 38869 ft 486 kts 26°
2026-04-26 09:14 -6.91178 54.30689 38875 ft 486 kts 26°
2026-04-26 09:14 -6.85224 54.33913 38870 ft 486 kts 26°
2026-04-26 09:15 -6.79277 54.37132 38736 ft 485 kts 26°
2026-04-26 09:15 -6.76314 54.38736 38515 ft 482 kts 26°
2026-04-26 09:15 -6.73361 54.40334 38252 ft 482 kts 26°
2026-04-26 09:15 -6.70406 54.41932 37988 ft 484 kts 26°
2026-04-26 09:16 -6.67428 54.43543 37719 ft 485 kts 26°
2026-04-26 09:16 -6.64455 54.45151 37464 ft 487 kts 26°
2026-04-26 09:16 -6.61474 54.46762 37199 ft 488 kts 26°
2026-04-26 09:16 -6.58480 54.48382 36938 ft 489 kts 26°
2026-04-26 09:17 -6.55472 54.50008 36700 ft 490 kts 27°
2026-04-26 09:17 -6.52457 54.51638 36460 ft 494 kts 27°
2026-04-26 09:17 -6.49425 54.53276 36211 ft 496 kts 27°
2026-04-26 09:17 -6.46384 54.54920 35958 ft 497 kts 27°
2026-04-26 09:18 -6.43331 54.56570 35731 ft 498 kts 27°
2026-04-26 09:18 -6.40278 54.58220 35484 ft 498 kts 27°
2026-04-26 09:18 -6.37232 54.59865 35243 ft 497 kts 27°
2026-04-26 09:18 -6.34189 54.61509 34917 ft 495 kts 27°
2026-04-26 09:19 -6.31161 54.63145 34444 ft 492 kts 27°
2026-04-26 09:19 -6.28177 54.64756 33947 ft 489 kts 27°
2026-04-26 09:19 -6.25178 54.66376 33378 ft 486 kts 27°
2026-04-26 09:19 -6.22210 54.67977 32852 ft 483 kts 27°
2026-04-26 09:20 -6.19302 54.69547 32350 ft 480 kts 27°
2026-04-26 09:20 -6.16373 54.71128 31846 ft 476 kts 27°
2026-04-26 09:20 -6.13457 54.72702 31349 ft 473 kts 27°
2026-04-26 09:20 -6.10568 54.74260 30856 ft 471 kts 27°
2026-04-26 09:21 -6.07689 54.75813 30359 ft 468 kts 28°
2026-04-26 09:21 -6.04829 54.77356 29857 ft 466 kts 28°
2026-04-26 09:22 -5.94083 54.83152 27976 ft 451 kts 28°
2026-04-26 09:22 -5.91332 54.84635 27503 ft 447 kts 28°
2026-04-26 09:22 -5.88640 54.86086 27053 ft 443 kts 28°
2026-04-26 09:23 -5.85900 54.87562 26585 ft 439 kts 28°
2026-04-26 09:23 -5.83221 54.89006 26108 ft 436 kts 28°
2026-04-26 09:23 -5.80589 54.90425 25675 ft 433 kts 28°
2026-04-26 09:23 -5.77945 54.91850 25217 ft 430 kts 29°
2026-04-26 09:24 -5.75323 54.93262 24761 ft 427 kts 28°
2026-04-26 09:24 -5.72713 54.94668 24304 ft 424 kts 29°
2026-04-26 09:24 -5.70127 54.96061 23851 ft 421 kts 29°
2026-04-26 09:24 -5.67552 54.97448 23389 ft 418 kts 29°
2026-04-26 09:25 -5.65003 54.98821 22882 ft 415 kts 29°
2026-04-26 09:25 -5.62447 55.00198 22432 ft 410 kts 29°
2026-04-26 09:25 -5.59981 55.01526 21994 ft 405 kts 29°
2026-04-26 09:25 -5.57513 55.02854 21544 ft 400 kts 29°
2026-04-26 09:26 -5.55075 55.04167 21115 ft 396 kts 29°
2026-04-26 09:26 -5.52661 55.05467 20674 ft 391 kts 29°
2026-04-26 09:26 -5.50275 55.06751 20248 ft 387 kts 29°
2026-04-26 09:26 -5.47907 55.08026 19819 ft 384 kts 29°
2026-04-26 09:27 -5.45564 55.09287 19405 ft 381 kts 29°
2026-04-26 09:27 -5.43238 55.10539 18976 ft 378 kts 29°
2026-04-26 09:27 -5.40924 55.11783 18555 ft 376 kts 29°
2026-04-26 09:27 -5.38627 55.13019 18129 ft 373 kts 29°
2026-04-26 09:28 -5.36348 55.14245 17673 ft 370 kts 29°
2026-04-26 09:28 -5.34092 55.15459 17239 ft 366 kts 29°
2026-04-26 09:28 -5.31855 55.16662 16843 ft 363 kts 29°
2026-04-26 09:28 -5.29639 55.17854 16438 ft 360 kts 29°
2026-04-26 09:29 -5.27442 55.19036 16035 ft 357 kts 29°
2026-04-26 09:29 -5.25261 55.20209 15632 ft 354 kts 29°
2026-04-26 09:29 -5.23098 55.21372 15215 ft 352 kts 29°
2026-04-26 09:29 -5.20951 55.22526 14835 ft 349 kts 29°
2026-04-26 09:30 -5.18816 55.23674 14446 ft 347 kts 28°
2026-04-26 09:30 -5.16699 55.24812 14057 ft 344 kts 29°
2026-04-26 09:30 -5.14602 55.25940 13657 ft 342 kts 28°
2026-04-26 09:30 -5.12497 55.27042 13228 ft 339 kts 25°
2026-04-26 09:31 -5.10250 55.27726 12823 ft 340 kts
2026-04-26 09:31 -5.07909 55.27911 12373 ft 344 kts
2026-04-26 09:31 -5.05522 55.27990 12104 ft 344 kts
2026-04-26 09:31 -5.03131 55.28066 11784 ft 342 kts
2026-04-26 09:32 -5.00762 55.28148 11440 ft 341 kts
2026-04-26 09:32 -4.98392 55.28233 11098 ft 340 kts
2026-04-26 09:32 -4.96046 55.28320 10837 ft 333 kts
2026-04-26 09:32 -4.93776 55.28406 10665 ft 321 kts
2026-04-26 09:33 -4.91588 55.28490 10491 ft 307 kts
2026-04-26 09:33 -4.89520 55.28569 10235 ft 289 kts
2026-04-26 09:33 -4.87536 55.28645 9814 ft 284 kts
2026-04-26 09:33 -4.85575 55.28720 9467 ft 281 kts
2026-04-26 09:34 -4.83625 55.28795 9088 ft 279 kts
2026-04-26 09:34 -4.81691 55.28869 8703 ft 278 kts
2026-04-26 09:34 -4.79766 55.28943 8357 ft 275 kts
2026-04-26 09:34 -4.77867 55.29017 8066 ft 271 kts
2026-04-26 09:35 -4.75984 55.29089 7787 ft 270 kts
2026-04-26 09:35 -4.74111 55.29161 7503 ft 269 kts
2026-04-26 09:35 -4.72256 55.29233 7318 ft 263 kts
2026-04-26 09:35 -4.70468 55.29302 7191 ft 252 kts
2026-04-26 09:36 -4.68755 55.29368 7057 ft 242 kts
2026-04-26 09:36 -4.67082 55.29433 6791 ft 240 kts
2026-04-26 09:36 -4.65416 55.29496 6464 ft 240 kts
2026-04-26 09:36 -4.63763 55.29559 6213 ft 236 kts
2026-04-26 09:37 -4.62141 55.29622 5987 ft 231 kts
2026-04-26 09:37 -4.60552 55.29683 5816 ft 223 kts
2026-04-26 09:37 -4.59030 55.29743 5629 ft 216 kts
2026-04-26 09:37 -4.57536 55.29800 5350 ft 213 kts
2026-04-26 09:38 -4.56062 55.29856 5077 ft 211 kts
2026-04-26 09:38 -4.54611 55.29913 4834 ft 207 kts
2026-04-26 09:38 -4.53183 55.30049 4585 ft 207 kts
2026-04-26 09:38 -4.51737 55.30410 4461 ft 221 kts 18°
2026-04-26 09:39 -4.50325 55.31042 4419 ft 224 kts 28°
2026-04-26 09:39 -4.49048 55.31924 4356 ft 221 kts 40°
2026-04-26 09:39 -4.47996 55.32970 4186 ft 211 kts 50°
2026-04-26 09:39 -4.47172 55.34132 4088 ft 198 kts 60°
2026-04-26 09:40 -4.46576 55.35336 3926 ft 189 kts 69°
2026-04-26 09:40 -4.46185 55.36574 3811 ft 191 kts 78°
2026-04-26 09:40 -4.45967 55.37979 3744 ft 214 kts 87°
2026-04-26 09:40 -4.45988 55.39477 3678 ft 215 kts 98°
2026-04-26 09:41 -4.46261 55.40950 3641 ft 215 kts 108°
2026-04-26 09:41 -4.46784 55.42335 3590 ft 212 kts 118°
2026-04-26 09:41 -4.47553 55.43578 3521 ft 205 kts 129°
2026-04-26 09:41 -4.48479 55.44593 3395 ft 190 kts 140°
2026-04-26 09:42 -4.49485 55.45370 3260 ft 176 kts 149°
2026-04-26 09:42 -4.50521 55.45935 3156 ft 164 kts 158°
2026-04-26 09:42 -4.51567 55.46289 3000 ft 153 kts 172°
2026-04-26 09:42 -4.52590 55.46360 2929 ft 145 kts 181°
2026-04-26 09:43 -4.53584 55.46359 2846 ft 142 kts 182°
2026-04-26 09:43 -4.54577 55.46358 2809 ft 143 kts 182°
2026-04-26 09:43 -4.55568 55.46358 2729 ft 143 kts 182°
2026-04-26 09:43 -4.56566 55.46362 2634 ft 144 kts 182°
2026-04-26 09:44 -4.57562 55.46366 2492 ft 142 kts 181°
2026-04-26 09:44 -4.58540 55.46374 2229 ft 142 kts 181°
2026-04-26 09:44 -4.59535 55.46376 1957 ft 144 kts 182°
2026-04-26 09:44 -4.60525 55.46375 1683 ft 141 kts 181°
2026-04-26 09:45 -4.61497 55.46377 1537 ft 140 kts 183°
2026-04-26 09:45 -4.62475 55.46459 1352 ft 143 kts 172°
2026-04-26 09:45 -4.63385 55.46823 1119 ft 141 kts 152°
2026-04-26 09:45 -4.64129 55.47477 947 ft 144 kts 134°
2026-04-26 09:46 -4.64735 55.48286 811 ft 148 kts 129°
2026-04-26 09:46 -4.65347 55.49146 567 ft 151 kts 126°
2026-04-26 09:46 -4.65924 55.50005 327 ft 147 kts 125°
2026-04-26 09:46 -4.66511 55.50838 141 ft 145 kts 125°
2026-04-26 09:47 -4.67086 55.51672 28 ft 139 kts 126°
2026-04-26 09:47 -4.67497 55.52264 28 ft 62 kts 124°
2026-04-26 09:47 -4.67584 55.52392 28 ft 3 kts 124°
2026-04-26 09:47 -4.67630 55.52459 28 ft 20 kts 124°
2026-04-26 09:48 -4.67724 55.52598 31 ft 25 kts 124°
2026-04-26 09:48 -4.67823 55.52740 27 ft 25 kts 124°
2026-04-26 09:48 -4.67923 55.52887 27 ft 26 kts 124°
2026-04-26 09:48 -4.68015 55.53021 29 ft 15 kts 124°
2026-04-26 09:49 -4.68060 55.53087 29 ft 12 kts 124°
2026-04-26 09:49 -4.68130 55.53147 28 ft 15 kts 159°
2026-04-26 09:49 -4.68229 55.53171 27 ft 12 kts 162°
2026-04-26 09:49 -4.68258 55.53230 27 ft 10 kts 66°
2026-04-26 09:50 -4.68199 55.53259 28 ft 9 kts 351°
2026-04-26 09:50 -4.68144 55.53207 28 ft 15 kts 307°
2026-04-26 09:50 -4.68079 55.53119 28 ft 16 kts 303°
2026-04-26 09:50 -4.68001 55.53000 29 ft 25 kts 304°
2026-04-26 09:51 -4.67898 55.52850 27 ft 27 kts 304°
2026-04-26 09:51 -4.67790 55.52691 27 ft 28 kts 304°
2026-04-26 09:51 -4.67678 55.52528 27 ft 26 kts 304°
2026-04-26 09:51 -4.67573 55.52375 28 ft 27 kts 304°
2026-04-26 09:52 -4.67463 55.52218 29 ft 28 kts 305°
2026-04-26 09:52 -4.67239 55.51891 29 ft 29 kts 305°
2026-04-26 09:52 -4.67133 55.51738 27 ft 20 kts 304°
2026-04-26 09:53 -4.67052 55.51620 28 ft 21 kts 305°
2026-04-26 09:53 -4.66965 55.51495 28 ft 22 kts 304°
2026-04-26 09:53 -4.66923 55.51432 28 ft 10 kts 304°
2026-04-26 09:53 -4.66913 55.51365 27 ft 11 kts 239°
2026-04-26 09:54 -4.66978 55.51312 27 ft 13 kts 216°
2026-04-26 09:54 -4.67011 55.51242 27 ft 11 kts 284°
2026-04-26 09:54 -4.66997 55.51205 27 ft 2 kts 258°
2026-04-26 09:54 -4.67005 55.51194 27 ft 3 kts 234°
2026-04-26 09:55 -4.67023 55.51176 27 ft 5 kts 218°
2026-04-26 09:55 -4.67035 55.51168 27 ft 0 kts 215°